Wind_Speed
6 4 3 3 2 2 2 3 3 4 4 5 5 7 10 10 11 11 12 13 13 12 12 12 12 11 11 11 11 11 11 11 10 10 9 8 7 6 7 6 6 6 7 7
6 4 2 2 2 0 1 0 1 2 3 4 4 6 8 9 10 11 12 12 12 12 12 12 12 11 10 10 10 10 11 11 10 10 9 8 8 7 7 7 7 7 7 8
6 4 3 2 3 3 1 2 2 3 3 3 5 6 8 9 9 10 11 12 11 12 12 12 12 12 11 11 11 10 11 11 10 9 9 8 8 8 7 8 8 8 9 9
6 4 4 4 4 4 4 3 3 3 3 4 5 7 8 8 8 10 11 11 11 11 11 12 12 12 11 11 11 11 11 11 11 9 9 9 9 9 9 9 9 9 10 9
6 4 4 4 5 5 6 5 5 4 4 5 6 6 6 8 9 10 11 12 11 11 11 12 13 12 12 11 11 11 12 12 12 11 10 10 9 9 9 9 10 10 10 10
5 4 4 4 5 5 4 5 5 5 6 6 7 7 7 7 8 8 10 11 11 11 11 12 12 12 12 12 12 12 12 12 12 12 11 11 11 10 10 10 11 11 11 11
6 5 5 5 6 6 6 6 6 6 7 7 7 8 7 7 7 8 9 11 11 11 12 13 13 13 13 13 13 12 12 12 12 12 12 12 12 11 11 11 11 11 12 12
7 7 6 6 6 7 7 7 7 7 8 9 10 11 8 6 6 7 9 11 11 11 12 14 14 14 14 14 14 13 13 13 13 13 13 13 13 11 11 11 11 11 12 12
10 9 9 9 8 8 8 8 8 9 9 10 11 10 9 7 7 9 10 12 13 12 13 14 15 14 15 15 15 14 14 14 14 14 14 13 13 12 12 12 12 12 13 14
12 11 11 10 11 11 9 9 10 10 11 11 11 9 8 9 10 10 11 12 13 14 14 15 15 15 15 16 15 15 15 15 14 14 14 14 14 13 13 13 14 14 15 15
15 14 12 12 12 12 11 11 12 11 12 13 11 10 10 11 11 11 12 14 14 14 15 15 16 16 16 16 16 16 17 16 16 16 15 15 15 15 15 14 15 16 16 16
17 17 16 15 15 15 15 14 15 14 13 13 12 12 12 13 14 14 14 15 14 14 15 15 16 17 17 17 17 17 18 18 18 18 17 17 17 17 17 17 17 17 17 17
19 19 19 17 17 18 18 17 17 17 17 15 15 15 15 16 16 16 16 17 16 16 15 16 17 17 18 18 18 18 19 19 19 19 19 19 18 19 19 19 19 19 20 20
21 21 21 20 19 20 20 19 20 20 20 19 18 18 17 18 17 16 17 18 17 17 16 17 18 19 19 19 20 20 21 20 20 20 20 20 20 20 20 20 20 20 21 21
23 23 23 22 23 23 22 21 22 21 21 21 19 19 19 20 20 19 19 19 19 19 18 18 19 20 20 20 21 21 22 22 22 22 22 21 21 21 21 22 21 21 22 22
25 25 23 23 24 25 25 23 22 23 22 21 22 21 21 21 22 22 22 22 21 21 21 21 20 21 22 21 22 22 23 23 23 23 23 23 22 23 23 23 22 22 23 24
27 26 25 24 24 25 26 23 23 22 22 21 22 22 22 23 23 24 24 22 22 23 23 24 23 23 23 23 24 24 24 24 24 24 24 24 24 24 24 24 23 24 25 26
27 27 27 26 25 26 23 24 23 23 23 24 24 24 25 25 25 24 24 24 24 25 25 26 25 25 25 25 25 25 25 24 24 25 25 25 25 25 25 25 26 26 26 26
29 28 28 27 27 25 24 25 25 24 24 23 24 25 26 26 25 24 24 25 25 25 26 27 26 26 26 26 26 25 26 25 25 25 25 25 26 26 26 27 27 27 27 27
29 29 28 28 28 27 25 24 25 27 26 24 24 24 25 26 27 26 26 25 25 25 26 27 27 26 26 26 26 27 27 26 25 25 25 26 26 27 27 27 27 28 28 28
29 29 29 29 29 28 27 27 26 27 26 25 25 25 25 26 27 28 27 27 27 26 26 27 27 27 27 26 26 26 26 25 25 26 27 27 27 28 27 27 27 28 29 28
30 30 30 30 30 30 28 28 28 27 27 27 27 27 27 28 29 29 28 27 27 27 27 28 27 27 26 25 26 26 25 26 27 27 28 28 28 28 27 27 28 29 28 28
31 31 30 31 30 30 28 28 28 28 29 29 29 30 30 30 30 29 28 28 28 28 28 28 28 27 27 26 26 26 26 27 27 28 28 27 28 28 28 29 29 29 29 28
31 32 32 32 31 31 30 29 29 29 29 29 30 30 30 30 29 28 29 28 28 28 27 27 27 27 26 26 26 27 27 27 28 29 29 28 28 29 29 29 29 30 29 28
31 32 33 32 30 30 30 30 30 30 30 30 30 29 29 28 28 28 28 28 27 27 27 27 27 26 27 27 26 26 26 27 27 28 28 27 27 27 28 28 29 29 29 28
32 32 32 32 32 32 31 30 30 30 29 29 28 27 27 26 27 27 27 26 26 26 26 26 26 25 25 25 25 26 27 27 27 27 28 28 27 27 27 27 27 27 26 27
Wind_Direction
171 154 132 128 111 69 67 51 38 31 11 5 2 356 6 3 2 11 18 16 15 14 12 10 11 17 15 13 10 6 4 3 4 6 8 5 360 356 351 351 351 353 352 354
195 191 166 177 185 200 114 51 329 328 329 342 347 351 353 355 1 7 13 10 9 7 6 7 7 10 10 8 7 5 4 3 3 3 360 359 355 350 345 341 339 338 336 338
208 202 199 221 210 235 254 298 311 313 307 315 334 340 344 343 357 3 5 7 7 3 3 4 4 5 3 1 1 4 2 1 360 356 352 349 345 341 339 336 331 328 324 323
224 226 217 227 242 240 255 271 267 271 293 301 323 329 332 339 347 351 353 356 358 360 358 357 359 360 357 357 358 358 359 356 354 351 346 345 341 335 330 327 324 320 317 317
221 222 220 228 247 248 252 260 273 268 279 298 310 314 324 328 331 341 350 350 351 352 351 352 352 352 353 353 352 352 351 350 349 346 342 340 332 325 320 320 320 321 318 316
216 219 227 239 250 261 251 258 270 268 276 294 307 308 313 318 324 333 338 337 342 342 343 347 347 346 348 347 345 345 344 344 343 341 337 334 327 323 322 320 318 318 315 314
221 225 229 236 245 256 262 273 269 259 274 290 293 294 297 306 325 326 322 325 333 334 334 336 339 338 340 340 340 337 336 335 335 334 332 330 327 321 318 317 316 316 315 314
231 224 226 236 251 267 266 274 272 275 286 290 291 292 294 304 315 313 313 317 320 324 327 330 331 331 333 334 333 330 328 328 329 327 326 327 325 318 314 314 315 315 313 312
239 228 224 230 245 260 260 266 270 274 281 285 290 291 285 289 292 299 305 313 316 319 326 325 323 326 328 328 327 325 322 322 323 323 325 325 322 315 313 311 311 311 309 308
246 240 229 234 242 250 257 263 270 271 279 283 284 290 291 291 297 297 298 308 315 317 319 319 321 323 324 323 323 321 318 317 317 318 320 322 320 313 310 310 311 311 309 307
245 246 239 237 241 245 250 267 274 276 278 281 281 286 288 292 298 299 295 300 308 311 313 316 318 318 319 320 320 319 318 318 318 318 318 317 315 313 309 307 310 310 307 305
250 247 246 242 242 244 250 260 264 267 273 277 282 286 286 289 291 291 294 295 298 305 309 311 313 314 315 317 317 316 316 316 315 314 314 313 311 311 308 305 304 305 305 306
248 248 245 240 240 243 247 253 259 264 273 275 277 280 286 290 291 289 290 293 295 300 305 308 308 310 311 312 312 311 310 310 309 309 309 309 308 308 306 304 302 303 304 304
244 247 246 247 247 246 249 252 257 263 269 270 274 278 283 288 289 290 293 294 293 295 299 303 306 307 309 308 308 308 305 306 306 306 305 305 305 304 304 303 303 302 302 302
246 247 249 251 253 252 253 255 258 264 269 272 277 277 279 283 286 289 291 293 293 296 298 300 302 304 307 307 306 306 305 304 304 304 303 303 303 302 302 303 303 302 302 302
250 251 251 252 253 254 255 254 257 260 266 271 276 277 280 282 283 285 288 292 294 300 297 298 300 302 303 304 304 303 303 301 301 302 302 302 301 301 300 302 301 301 301 301
252 254 253 252 253 257 255 255 257 261 265 270 272 276 278 282 284 284 287 292 299 300 297 298 300 301 301 302 303 302 302 300 300 301 301 302 301 300 300 300 299 299 299 300
252 255 257 258 258 258 257 255 258 264 267 269 273 275 277 280 284 285 288 290 293 295 298 299 298 298 299 301 303 302 302 300 300 300 300 300 301 300 300 299 299 299 299 299
251 254 257 259 260 262 260 259 260 265 269 274 276 277 278 280 283 284 287 288 290 292 296 298 296 297 299 300 301 301 301 300 299 300 300 300 299 298 298 298 297 298 298 299
249 251 254 256 259 263 263 263 263 264 268 274 279 281 282 280 282 285 285 287 290 292 294 296 296 297 299 299 299 300 300 300 300 300 299 298 298 297 298 298 298 298 299 299
248 251 253 255 257 260 263 264 265 265 268 272 276 279 280 281 282 286 287 288 288 290 294 295 295 296 298 299 299 299 299 300 299 299 298 297 297 297 298 299 299 300 300 298
251 254 257 256 256 259 262 262 263 266 269 272 276 277 278 280 282 284 284 286 289 291 293 295 295 295 297 298 298 299 299 299 299 299 298 297 298 298 299 298 299 299 300 299
252 255 257 257 258 261 261 262 264 265 268 272 275 278 278 278 280 281 282 285 289 290 292 294 296 294 294 296 297 297 297 298 299 299 299 298 297 298 297 298 299 299 299 299
251 254 255 257 258 260 261 263 264 266 268 272 274 276 277 276 277 277 280 284 288 289 290 292 294 295 294 295 296 297 297 298 299 300 299 297 296 297 298 299 299 298 298 298
249 251 255 258 257 258 260 263 265 267 269 273 276 278 280 279 277 276 279 282 285 289 290 293 295 295 295 295 296 298 298 299 300 300 300 300 301 302 300 300 299 298 297 297
249 251 254 256 257 260 262 264 266 268 271 273 274 278 278 277 276 277 279 281 284 287 289 291 293 294 295 296 297 297 298 298 300 302 304 304 304 303 303 302 301 300 300 300
Height
5923 5924 5924 5925 5925 5925 5924 5924 5923 5923 5922 5921 5920 5920 5919 5917 5916 5915 5914 5912 5910 5909 5907 5905 5903 5901 5899 5897 5895 5894 5892 5890 5888 5886 5884 5883 5882 5881 5880 5879 5878 5877 5875 5874
5923 5923 5924 5923 5924 5924 5923 5923 5923 5923 5922 5921 5920 5919 5918 5917 5916 5915 5914 5912 5910 5909 5907 5905 5903 5901 5899 5897 5895 5893 5891 5889 5887 5885 5884 5883 5881 5880 5879 5878 5877 5876 5874 5873
5921 5923 5922 5922 5922 5923 5923 5923 5922 5922 5921 5920 5919 5919 5917 5916 5915 5914 5913 5912 5910 5909 5907 5905 5903 5900 5899 5897 5895 5893 5891 5888 5886 5885 5883 5882 5881 5879 5878 5877 5876 5874 5872 5871
5920 5920 5920 5921 5921 5921 5922 5922 5922 5921 5920 5919 5919 5918 5916 5914 5914 5914 5912 5911 5910 5908 5906 5904 5902 5900 5898 5896 5894 5892 5890 5888 5885 5883 5882 5881 5879 5878 5876 5875 5874 5872 5871 5870
5918 5919 5919 5919 5920 5920 5920 5920 5920 5920 5919 5919 5918 5917 5916 5914 5912 5912 5911 5910 5908 5907 5905 5903 5902 5900 5898 5895 5893 5891 5889 5887 5885 5883 5881 5880 5878 5876 5875 5873 5872 5870 5869 5867
5917 5917 5917 5918 5918 5918 5919 5919 5919 5918 5917 5918 5917 5916 5915 5912 5911 5910 5909 5908 5907 5906 5904 5902 5900 5898 5896 5894 5892 5890 5887 5885 5883 5881 5879 5878 5876 5874 5873 5871 5869 5868 5867 5865
5915 5915 5916 5916 5917 5917 5917 5917 5917 5916 5915 5915 5914 5913 5913 5911 5909 5908 5907 5907 5906 5904 5902 5900 5898 5896 5895 5892 5890 5888 5886 5884 5881 5879 5877 5875 5873 5871 5870 5869 5867 5865 5864 5862
5912 5914 5914 5914 5915 5915 5914 5915 5915 5914 5913 5912 5911 5910 5910 5909 5907 5906 5906 5905 5903 5902 5900 5898 5896 5894 5892 5890 5888 5886 5884 5881 5879 5877 5875 5873 5871 5869 5868 5866 5865 5863 5861 5860
5910 5912 5912 5912 5912 5912 5912 5912 5912 5911 5910 5910 5909 5907 5907 5906 5905 5904 5904 5902 5901 5899 5897 5896 5894 5892 5890 5888 5886 5884 5882 5879 5877 5875 5873 5870 5868 5867 5865 5863 5862 5860 5858 5856
5906 5908 5909 5910 5910 5910 5910 5910 5910 5908 5908 5907 5906 5905 5905 5904 5903 5902 5901 5900 5898 5896 5895 5893 5891 5889 5887 5885 5883 5880 5878 5877 5875 5872 5870 5868 5866 5864 5862 5860 5858 5857 5855 5853
5903 5904 5906 5907 5906 5906 5907 5907 5906 5905 5905 5904 5903 5905 5902 5901 5900 5898 5897 5896 5895 5893 5891 5890 5887 5886 5884 5881 5879 5877 5874 5873 5871 5869 5867 5865 5863 5860 5858 5856 5854 5853 5850 5848
5898 5900 5901 5903 5904 5903 5903 5902 5902 5902 5902 5901 5900 5902 5898 5897 5896 5895 5894 5893 5891 5890 5888 5886 5884 5883 5880 5878 5876 5873 5871 5869 5867 5865 5863 5861 5859 5856 5854 5852 5850 5848 5845 5843
5894 5895 5896 5898 5901 5900 5898 5898 5898 5898 5897 5896 5896 5898 5894 5893 5892 5891 5890 5889 5887 5886 5885 5883 5881 5879 5877 5874 5872 5870 5868 5865 5862 5860 5858 5856 5854 5852 5849 5847 5845 5843 5840 5838
5888 5889 5891 5893 5893 5894 5894 5894 5894 5893 5893 5892 5892 5891 5890 5889 5888 5887 5886 5884 5883 5882 5880 5878 5876 5874 5872 5870 5868 5866 5863 5860 5858 5855 5853 5851 5849 5847 5844 5842 5839 5837 5834 5832
5883 5884 5885 5887 5887 5888 5888 5888 5889 5888 5888 5888 5888 5887 5886 5885 5884 5883 5882 5880 5879 5877 5875 5873 5871 5869 5867 5865 5862 5860 5857 5855 5852 5850 5848 5845 5843 5841 5839 5836 5834 5831 5828 5825
5877 5878 5880 5881 5881 5881 5882 5883 5883 5883 5882 5882 5881 5881 5880 5879 5879 5878 5876 5875 5873 5871 5870 5868 5866 5864 5861 5859 5856 5854 5852 5849 5846 5844 5842 5839 5837 5835 5832 5830 5828 5825 5823 5820
5871 5872 5874 5875 5875 5875 5876 5877 5877 5877 5876 5876 5876 5876 5874 5873 5873 5872 5870 5868 5867 5865 5863 5862 5859 5857 5855 5852 5850 5848 5845 5843 5840 5838 5835 5833 5831 5828 5826 5824 5822 5819 5816 5813
5865 5865 5866 5868 5870 5869 5872 5871 5870 5870 5870 5870 5869 5869 5868 5867 5867 5865 5863 5862 5860 5859 5857 5855 5852 5850 5848 5846 5843 5841 5838 5836 5834 5831 5828 5826 5824 5821 5819 5817 5814 5812 5809 5806
5858 5859 5859 5861 5861 5862 5864 5864 5864 5863 5863 5863 5862 5862 5861 5860 5860 5858 5857 5855 5853 5852 5850 5848 5846 5843 5841 5839 5836 5834 5831 5829 5827 5824 5822 5819 5817 5814 5812 5809 5806 5804 5801 5799
5851 5851 5853 5853 5854 5855 5858 5857 5856 5857 5856 5856 5856 5855 5855 5854 5853 5852 5850 5848 5846 5844 5843 5840 5838 5836 5833 5831 5828 5826 5824 5822 5819 5817 5815 5812 5809 5807 5804 5801 5799 5796 5793 5791
5843 5844 5845 5846 5846 5847 5849 5849 5849 5850 5850 5850 5850 5849 5848 5847 5846 5845 5843 5842 5839 5836 5834 5833 5831 5829 5826 5823 5821 5819 5817 5815 5812 5810 5807 5804 5802 5799 5796 5793 5790 5788 5785 5783
5835 5836 5837 5838 5839 5842 5841 5842 5843 5843 5842 5842 5842 5842 5841 5840 5839 5837 5836 5834 5832 5830 5827 5825 5823 5821 5819 5816 5814 5812 5810 5807 5804 5802 5799 5796 5794 5791 5788 5785 5782 5780 5777 5774
5827 5829 5830 5831 5833 5833 5833 5834 5834 5834 5834 5834 5834 5833 5833 5832 5831 5830 5828 5826 5824 5823 5821 5819 5816 5814 5811 5809 5807 5805 5802 5800 5797 5794 5791 5788 5786 5783 5780 5777 5774 5772 5769 5765
5819 5820 5821 5822 5823 5824 5824 5825 5826 5826 5826 5826 5826 5825 5824 5823 5822 5821 5820 5818 5817 5815 5813 5812 5809 5806 5804 5802 5800 5797 5795 5792 5789 5786 5783 5780 5778 5775 5772 5769 5766 5763 5760 5757
5811 5812 5813 5814 5815 5816 5817 5817 5818 5818 5818 5818 5817 5816 5815 5814 5813 5812 5811 5810 5809 5807 5806 5804 5802 5799 5797 5795 5793 5790 5787 5785 5782 5779 5776 5772 5769 5766 5763 5760 5757 5754 5752 5749
5803 5804 5805 5806 5807 5808 5808 5809 5809 5810 5809 5809 5809 5808 5807 5806 5804 5803 5803 5801 5801 5800 5798 5796 5794 5792 5790 5788 5786 5783 5780 5778 5775 5772 5769 5765 5762 5758 5755 5752 5749 5746 5744 5741